Weather History for Cumshewa Island, BC

Change the Weather History Date:

Tuesday, January 14, 2014

  Actual Average Record
Temperature  
Mean Temperature 51 °F -  
Max Temperature 55 °F - - ()
Min Temperature 45 °F - - ()
Degree Days  
Heating Degree Days 14    
Growing Degree Days 1 (Base 50)    
Moisture  
Dew Point 45 °F    
Average Humidity 83    
Maximum Humidity 97    
Minimum Humidity 70    
Precipitation  
Precipitation 0.00 in - - ()
Sea Level Pressure  
Sea Level Pressure 30.15 in    
Wind  
Wind Speed 20 mph ()    
Max Wind Speed 34 mph    
Max Gust Speed 43 mph    
T = Trace of Precipitation, MM = Missing Value Source: Averaged Metar Reports

Daily Weather History Graph

Daily Weather History Graph

Search for Another Location

Airport:

Trip Planner

Search our weather history database for the weather conditions in past years. The results will help you decide how hot, cold, wet, or windy it might be!

Date:

Astronomy

Jan. 14, 2014 Rise Set
Actual Time 8:52 AM PST 4:58 PM PST
Civil Twilight 8:12 AM PST 5:39 PM PST
Nautical Twilight 7:28 AM PST 6:22 PM PST
Astronomical Twilight 6:47 AM PST 7:04 PM PST
Moon 4:14 PM PST (1/14) 7:28 AM PST (1/14)
Length of Visible Light 9h 26m
Length of Day
8h 05m
Waxing Gibbous, 98% of the Moon is Illuminated
Jan 14
Waxing Gibbous
Jan 15
Full
Jan 23
Last Quarter
Jan 30
New
Feb 6
First Quarter

Hourly Weather History & Observations

Time (PST) Temp. Windchill Dew Point Humidity Pressure Visibility Wind Dir Wind Speed Gust Speed Precip Events Conditions
12:00 AM 50.4 °F - 43.0 °F 76% 30.23 in - SSW 17.3 mph 24.2 mph N/A   Unknown
1:00 AM 49.3 °F - 43.2 °F 79% 30.22 in - South 25.3 mph - N/A   Unknown
2:00 AM 48.2 °F - 44.6 °F 87% 30.20 in - South 27.6 mph - N/A   Unknown
3:00 AM 47.8 °F - 45.3 °F 91% 30.20 in - South 27.6 mph - N/A   Unknown
4:00 AM 47 °F - 46 °F 96% 30.18 in - SSE 32.2 mph - -  
4:00 AM 47.3 °F - 46.2 °F 96% 30.18 in - SSE 32.2 mph - N/A   Unknown
5:00 AM 47.5 °F - 46.6 °F 97% 30.15 in - SSE 33.4 mph - N/A   Unknown
6:00 AM 47.8 °F - 46.9 °F 97% 30.13 in - SSE 34.5 mph - N/A   Unknown
7:00 AM 48.6 °F - 46.8 °F 93% 30.09 in - SSE 31.1 mph - N/A   Unknown
8:00 AM 49.3 °F - 47.5 °F 94% 30.06 in - SSE 32.2 mph - N/A   Unknown
9:00 AM 48.6 °F - 46.8 °F 93% 30.05 in - SSE 31.1 mph 36.8 mph N/A   Unknown
10:00 AM 50 °F - 47 °F 86% 30.04 in - South 29.9 mph - -  
10:00 AM 50.4 °F - 47.1 °F 89% 30.04 in - South 29.9 mph 36.8 mph N/A   Unknown
11:00 AM 50.7 °F - 47.5 °F 89% 30.06 in - South 23.0 mph - N/A   Unknown
12:00 PM 53.2 °F - 47.5 °F 81% 30.04 in - South 13.8 mph - N/A   Unknown
1:00 PM 55.2 °F - 45.5 °F 70% 30.01 in - SSW 21.9 mph 34.5 mph N/A   Unknown
2:00 PM 55.0 °F - 47.1 °F 75% 29.99 in - SW 31.1 mph 42.6 mph N/A   Unknown
3:00 PM 55.0 °F - 45.7 °F 71% 30.01 in - WSW 29.9 mph 41.4 mph N/A   Unknown
4:00 PM 52 °F - 46 °F 75% 30.11 in - WNW 9.2 mph - -  
4:00 PM 51.6 °F - 46.4 °F 82% 30.11 in - WNW 9.2 mph 19.6 mph N/A   Unknown
5:00 PM 49.8 °F - 43.3 °F 78% 30.14 in - WSW 16.1 mph 24.2 mph N/A   Unknown
6:00 PM 50.2 °F - 41.7 °F 73% 30.18 in - NW 5.8 mph - N/A   Unknown
7:00 PM 49.1 °F - 40.8 °F 73% 30.21 in - West 5.8 mph - N/A   Unknown
8:00 PM 47.7 °F - 42.4 °F 82% 30.25 in - ENE 4.6 mph - N/A   Unknown
9:00 PM 48.2 °F - 42.1 °F 79% 30.30 in - North 2.3 mph - N/A   Unknown
10:00 PM 48 °F - 42 °F 71% 30.34 in - NW 6.9 mph - -  
10:00 PM 48.4 °F - 41.5 °F 77% 30.34 in - NW 6.9 mph - N/A   Unknown
11:00 PM 45.9 °F 42.3 °F 41.5 °F 85% 30.37 in - West 6.9 mph - N/A   Unknown